{"data":{"norad_id":64837,"epoch":"2026-09-21T20:14:58.782624Z","epoch_age_seconds":55110,"freshness":"FRESH","line1":"1 64837U 25151X   26264.84373591  .00000987  00000+0  15843-3 0  9999","line2":"2 64837  51.9006 143.2127 0000834  99.2678 260.8378 14.79937337 65702","mean_motion":14.79937337,"eccentricity":8.34e-5,"inclination_deg":51.9006,"raan_deg":143.2127,"arg_perigee_deg":99.2678,"mean_anomaly_deg":260.8378,"bstar":0.00015843,"rev_number":6570,"period_min":97.301417026145,"perigee_km":628.93749961868,"apogee_km":630.1063771296,"semimajor_km":7007.6589383741,"source":"CELESTRAK","updated_at":"2026-09-22T09:00:29.979262Z"}}